| time (UTC) | temp F | wind direction | speed MPH | gust MPH | rain 1hr in | rain 24hr in | rain mn in | humidity % | barometer mb |
| 20260904125625 | 61 | 149 | 0.0 | 9.0 | 0.00 | 0.07 | 0.00 | 62 | 997.3 |
| 20260904125032 | 62 | 322 | 3.0 | 9.0 | 0.00 | 0.07 | 0.00 | 59 | 997.3 |
| 20260904124543 | 62 | 357 | 3.0 | 9.0 | 0.00 | 0.07 | 0.00 | 64 | 997.3 |
| 20260904124033 | 61 | 0 | 0.0 | 4.0 | 0.00 | 0.07 | 0.00 | 62 | 997.4 |
| 20260904123534 | 60 | 155 | 1.0 | 4.0 | 0.00 | 0.07 | 0.00 | 63 | 997.4 |
| 20260904123058 | 59 | 0 | 0.0 | 4.0 | 0.00 | 0.07 | 0.00 | 64 | 997.4 |
| 20260904122532 | 59 | 333 | 0.0 | 4.0 | 0.00 | 0.07 | 0.00 | 67 | 997.4 |
| 20260904122031 | 59 | 9 | 2.0 | 4.0 | 0.00 | 0.07 | 0.00 | 67 | 997.5 |
| 20260904121549 | 59 | 4 | 0.0 | 4.0 | 0.00 | 0.07 | 0.00 | 74 | 997.5 |
| 20260904121033 | 59 | 0 | 0.0 | 3.0 | 0.00 | 0.07 | 0.00 | 74 | 997.6 |
| 20260904120531 | 59 | 278 | 0.0 | 3.0 | 0.00 | 0.07 | 0.00 | 70 | 997.6 |
| 20260904120058 | 58 | 0 | 0.0 | 1.0 | 0.00 | 0.07 | 0.00 | 72 | 997.6 |
| 20260904115531 | 58 | 0 | 0.0 | 1.0 | 0.00 | 0.07 | 0.00 | 76 | 997.7 |
| 20260904115032 | 57 | 0 | 0.0 | 1.0 | 0.00 | 0.07 | 0.00 | 77 | 997.7 |
| 20260904114548 | 57 | 0 | 0.0 | 3.0 | 0.00 | 0.07 | 0.00 | 74 | 997.8 |
| 20260904114031 | 57 | 0 | 0.0 | 5.0 | 0.00 | 0.07 | 0.00 | 76 | 997.8 |
| 20260904113531 | 57 | 4 | 1.0 | 5.0 | 0.00 | 0.07 | 0.00 | 72 | 997.8 |
| 20260904113055 | 58 | 14 | 2.0 | 5.0 | 0.00 | 0.07 | 0.00 | 69 | 997.9 |
| 20260904112530 | 58 | 0 | 2.0 | 10.0 | 0.00 | 0.07 | 0.00 | 65 | 997.9 |
| 20260904112033 | 59 | 21 | 3.0 | 11.0 | 0.00 | 0.07 | 0.00 | 67 | 997.8 |
| 20260904111552 | 60 | 336 | 5.0 | 11.0 | 0.00 | 0.07 | 0.00 | 63 | 998.0 |
| 20260904111030 | 60 | 320 | 4.0 | 11.0 | 0.00 | 0.07 | 0.00 | 68 | 997.9 |
| 20260904110531 | 59 | 4 | 4.0 | 11.0 | 0.00 | 0.07 | 0.00 | 66 | 998.0 |
| 20260904110051 | 60 | 54 | 5.0 | 11.0 | 0.00 | 0.07 | 0.00 | 66 | 998.0 |
| 20260904105534 | 62 | 50 | 3.0 | 8.0 | 0.00 | 0.07 | 0.00 | 66 | 998.0 |
| 20260904105030 | 61 | 277 | 3.0 | 7.0 | 0.00 | 0.07 | 0.00 | 60 | 998.0 |
| 20260904104545 | 60 | 0 | 1.0 | 4.0 | 0.00 | 0.07 | 0.00 | 62 | 998.1 |
| 20260904104031 | 60 | 261 | 0.0 | 1.0 | 0.00 | 0.07 | 0.00 | 60 | 998.0 |
| 20260904103530 | 57 | 0 | 0.0 | 3.0 | 0.00 | 0.07 | 0.00 | 75 | 998.1 |
| 20260904103053 | 58 | 0 | 0.0 | 3.0 | 0.00 | 0.07 | 0.00 | 71 | 998.0 |
| 20260904102531 | 59 | 272 | 1.0 | 5.0 | 0.00 | 0.07 | 0.00 | 59 | 998.1 |
| 20260904102031 | 60 | 236 | 1.0 | 5.0 | 0.00 | 0.07 | 0.00 | 59 | 998.1 |
| 20260904101550 | 60 | 0 | 0.0 | 5.0 | 0.00 | 0.07 | 0.00 | 63 | 998.2 |
| 20260904101031 | 60 | 229 | 0.0 | 4.0 | 0.00 | 0.07 | 0.00 | 67 | 998.2 |
| 20260904100531 | 59 | 272 | 0.0 | 4.0 | 0.00 | 0.07 | 0.00 | 64 | 998.1 |
| 20260904100049 | 60 | 0 | 2.0 | 4.0 | 0.00 | 0.07 | 0.00 | 68 | 998.2 |
| 20260904095532 | 59 | 0 | 0.0 | 4.0 | 0.00 | 0.07 | 0.00 | 71 | 998.2 |
| 20260904095031 | 59 | 240 | 1.0 | 4.0 | 0.00 | 0.07 | 0.00 | 68 | 998.2 |
| 20260904094543 | 59 | 324 | 2.0 | 4.0 | 0.00 | 0.07 | 0.00 | 66 | 998.2 |
| 20260904094030 | 59 | 35 | 0.0 | 3.0 | 0.00 | 0.07 | 0.00 | 66 | 998.2 |
| 20260904093532 | 58 | 261 | 2.0 | 3.0 | 0.00 | 0.07 | 0.00 | 73 | 998.4 |
| 20260904093052 | 58 | 0 | 0.0 | 3.0 | 0.00 | 0.07 | 0.00 | 74 | 998.3 |
| 20260904092531 | 57 | 334 | 1.0 | 4.0 | 0.00 | 0.07 | 0.00 | 77 | 998.5 |
| 20260904092030 | 58 | 342 | 1.0 | 5.0 | 0.00 | 0.07 | 0.00 | 75 | 998.4 |
| 20260904091547 | 58 | 356 | 1.0 | 5.0 | 0.00 | 0.07 | 0.00 | 76 | 998.4 |
| 20260904091033 | 58 | 358 | 1.0 | 6.0 | 0.00 | 0.07 | 0.00 | 76 | 998.5 |
| 20260904090531 | 59 | 23 | 2.0 | 6.0 | 0.00 | 0.07 | 0.00 | 75 | 998.5 |
| 20260904090053 | 58 | 218 | 0.0 | 4.0 | 0.00 | 0.07 | 0.00 | 77 | 998.6 |
| 20260904085533 | 58 | 199 | 1.0 | 4.0 | 0.00 | 0.07 | 0.00 | 78 | 998.6 |
| 20260904085031 | 58 | 234 | 1.0 | 4.0 | 0.00 | 0.07 | 0.00 | 79 | 998.6 |
| 20260904084558 | 57 | 145 | 2.0 | 4.0 | 0.00 | 0.07 | 0.00 | 82 | 998.7 |
| 20260904084030 | 57 | 237 | 0.0 | 2.0 | 0.00 | 0.07 | 0.00 | 80 | 998.6 |
| 20260904083530 | 56 | 237 | 0.0 | 2.0 | 0.00 | 0.07 | 0.00 | 78 | 998.7 |
| 20260904083051 | 55 | 0 | 0.0 | 0.0 | 0.00 | 0.07 | 0.00 | 88 | 998.6 |
| 20260904082532 | 53 | 0 | 0.0 | 0.0 | 0.00 | 0.07 | 0.00 | 90 | 998.7 |
| 20260904082030 | 53 | 0 | 0.0 | 0.0 | 0.00 | 0.07 | 0.00 | 91 | 998.7 |
| 20260904081544 | 53 | 0 | 0.0 | 0.0 | 0.00 | 0.07 | 0.00 | 92 | 998.7 |
| 20260904081035 | 53 | 0 | 0.0 | 1.0 | 0.00 | 0.07 | 0.00 | 91 | 998.8 |
| 20260904080531 | 54 | 0 | 0.0 | 1.0 | 0.00 | 0.07 | 0.00 | 90 | 998.8 |
| 20260904075531 | 54 | 0 | 1.0 | 3.0 | 0.00 | 0.07 | 0.00 | 87 | 998.8 |
| 20260904075033 | 55 | 237 | 1.0 | 3.0 | 0.00 | 0.07 | 0.00 | 86 | 998.8 |
| 20260904074550 | 56 | 238 | 0.0 | 3.0 | 0.00 | 0.07 | 0.00 | 86 | 998.8 |
| 20260904074030 | 56 | 0 | 0.0 | 3.0 | 0.00 | 0.07 | 0.00 | 88 | 998.9 |
| 20260904073533 | 55 | 0 | 0.0 | 3.0 | 0.00 | 0.07 | 0.00 | 89 | 998.9 |
| 20260904073048 | 54 | 0 | 0.0 | 3.0 | 0.00 | 0.07 | 0.00 | 87 | 998.9 |
| 20260904072531 | 54 | 238 | 0.0 | 4.0 | 0.00 | 0.07 | 0.00 | 88 | 998.8 |
| 20260904072030 | 54 | 237 | 2.0 | 4.0 | 0.00 | 0.07 | 0.00 | 89 | 998.8 |
| 20260904071547 | 54 | 0 | 0.0 | 1.0 | 0.00 | 0.07 | 0.00 | 90 | 998.8 |
| 20260904071030 | 53 | 0 | 0.0 | 1.0 | 0.00 | 0.07 | 0.00 | 92 | 998.9 |
| 20260904070531 | 53 | 0 | 0.0 | 1.0 | 0.00 | 0.07 | 0.00 | 91 | 998.9 |
| 20260904070050 | 53 | 0 | 0.0 | 0.0 | 0.00 | 0.07 | 0.00 | 92 | 998.9 |
| 20260904065529 | 53 | 0 | 0.0 | 0.0 | 0.00 | 0.07 | 0.00 | 93 | 998.9 |
| 20260904065029 | 52 | 0 | 0.0 | 0.0 | 0.00 | 0.07 | 0.00 | 94 | 998.9 |
| 20260904064543 | 51 | 0 | 0.0 | 0.0 | 0.00 | 0.07 | 0.00 | 94 | 998.9 |
| 20260904064030 | 50 | 0 | 0.0 | 0.0 | 0.00 | 0.07 | 0.00 | 95 | 998.7 |
| 20260904063540 | 50 | 0 | 0.0 | 0.0 | 0.00 | 0.07 | 0.00 | 96 | 998.9 |
| 20260904063109 | 50 | 0 | 0.0 | 0.0 | 0.00 | 0.07 | 0.00 | 97 | 998.8 |
| 20260904062529 | 49 | 0 | 0.0 | 0.0 | 0.00 | 0.07 | 0.00 | 97 | 998.9 |
| 20260904062030 | 48 | 0 | 0.0 | 0.0 | 0.00 | 0.07 | 0.00 | 97 | 998.9 |
| 20260904061543 | 47 | 0 | 0.0 | 1.0 | 0.00 | 0.07 | 0.00 | 97 | 999.0 |
| 20260904061030 | 47 | 0 | 0.0 | 2.0 | 0.00 | 0.07 | 0.00 | 97 | 998.9 |
| 20260904060530 | 47 | 0 | 0.0 | 3.0 | 0.00 | 0.07 | 0.00 | 97 | 999.0 |
| 20260904060055 | 47 | 0 | 0.0 | 3.0 | 0.00 | 0.07 | 0.00 | 97 | 999.0 |
| 20260904055534 | 46 | 167 | 1.0 | 3.0 | 0.00 | 0.07 | 0.00 | 97 | 999.0 |
| 20260904055029 | 45 | 0 | 0.0 | 1.0 | 0.00 | 0.07 | 0.00 | 97 | 999.1 |
| 20260904054554 | 43 | 0 | 0.0 | 0.0 | 0.00 | 0.07 | 0.00 | 97 | 999.0 |
| 20260904054032 | 42 | 0 | 0.0 | 0.0 | 0.00 | 0.07 | 0.00 | 96 | 999.0 |
| 20260904053531 | 42 | 0 | 0.0 | 0.0 | 0.00 | 0.07 | 0.00 | 96 | 999.1 |
| 20260904053059 | 40 | 0 | 0.0 | 2.0 | 0.00 | 0.07 | 0.00 | 96 | 999.0 |
| 20260904052534 | 39 | 0 | 0.0 | 2.0 | 0.00 | 0.07 | 0.00 | 96 | 999.1 |
| 20260904052033 | 39 | 167 | 0.0 | 2.0 | 0.00 | 0.07 | 0.00 | 96 | 999.0 |
| 20260904051545 | 38 | 0 | 0.0 | 0.0 | 0.00 | 0.07 | 0.00 | 96 | 999.0 |
| 20260904051035 | 38 | 0 | 0.0 | 0.0 | 0.00 | 0.07 | 0.00 | 96 | 999.1 |
| 20260904050534 | 38 | 0 | 0.0 | 0.0 | 0.00 | 0.07 | 0.00 | 96 | 999.1 |
| 20260904050045 | 38 | 0 | 0.0 | 0.0 | 0.00 | 0.07 | 0.00 | 96 | 999.3 |
| 20260904045531 | 38 | 0 | 0.0 | 0.0 | 0.00 | 0.07 | 0.00 | 96 | 999.3 |
| 20260904045030 | 38 | 0 | 0.0 | 0.0 | 0.00 | 0.07 | 0.00 | 96 | 999.3 |
| 20260904044559 | 38 | 0 | 0.0 | 0.0 | 0.00 | 0.07 | 0.00 | 96 | 999.4 |
| 20260904044034 | 38 | 0 | 0.0 | 0.0 | 0.00 | 0.07 | 0.00 | 96 | 999.4 |
| 20260904043529 | 38 | 0 | 0.0 | 0.0 | 0.00 | 0.07 | 0.00 | 96 | 999.4 |
| 20260904043058 | 37 | 0 | 0.0 | 0.0 | 0.00 | 0.07 | 0.00 | 96 | 999.4 |
| 20260904042529 | 37 | 0 | 0.0 | 0.0 | 0.00 | 0.07 | 0.00 | 96 | 999.5 |
| 20260904042032 | 37 | 0 | 0.0 | 0.0 | 0.00 | 0.07 | 0.00 | 95 | 999.4 |
| 20260904041548 | 37 | 0 | 0.0 | 0.0 | 0.00 | 0.07 | 0.00 | 95 | 999.6 |
| 20260904041029 | 37 | 0 | 0.0 | 0.0 | 0.00 | 0.07 | 0.00 | 96 | 999.5 |
| 20260904040531 | 37 | 0 | 0.0 | 0.0 | 0.00 | 0.07 | 0.00 | 96 | 999.5 |
| 20260904040058 | 37 | 0 | 0.0 | 0.0 | 0.00 | 0.07 | 0.00 | 95 | 999.5 |
| 20260904035531 | 38 | 0 | 0.0 | 0.0 | 0.00 | 0.07 | 0.00 | 95 | 999.4 |
| 20260904035031 | 38 | 0 | 0.0 | 0.0 | 0.00 | 0.07 | 0.00 | 95 | 999.4 |
| 20260904034553 | 38 | 0 | 0.0 | 0.0 | 0.00 | 0.06 | 0.00 | 95 | 999.5 |
| 20260904034032 | 38 | 0 | 0.0 | 0.0 | 0.00 | 0.06 | 0.00 | 95 | 999.5 |
| 20260904033534 | 38 | 0 | 0.0 | 0.0 | 0.00 | 0.06 | 0.00 | 96 | 999.5 |
| 20260904033048 | 38 | 0 | 0.0 | 0.0 | 0.00 | 0.06 | 0.00 | 96 | 999.6 |
| 20260904032533 | 38 | 0 | 0.0 | 0.0 | 0.00 | 0.06 | 0.00 | 96 | 999.6 |
| 20260904032029 | 38 | 0 | 0.0 | 0.0 | 0.00 | 0.06 | 0.00 | 95 | 999.7 |
| 20260904031548 | 39 | 0 | 0.0 | 1.0 | 0.00 | 0.06 | 0.00 | 95 | 999.8 |
| 20260904031030 | 39 | 0 | 0.0 | 1.0 | 0.00 | 0.06 | 0.00 | 95 | 999.8 |
| 20260904030531 | 39 | 0 | 0.0 | 3.0 | 0.00 | 0.06 | 0.00 | 95 | 999.7 |
| 20260904030056 | 40 | 0 | 0.0 | 3.0 | 0.00 | 0.06 | 0.00 | 95 | 999.8 |
| 20260904025531 | 42 | 0 | 0.0 | 4.0 | 0.00 | 0.06 | 0.00 | 96 | 999.9 |
| 20260904025030 | 42 | 0 | 0.0 | 4.0 | 0.00 | 0.06 | 0.00 | 96 | 999.8 |
| 20260904024558 | 41 | 214 | 1.0 | 3.0 | 0.00 | 0.06 | 0.00 | 96 | 999.9 |
| 20260904024031 | 40 | 210 | 0.0 | 2.0 | 0.00 | 0.06 | 0.00 | 96 | 1000.0 |
| 20260904023531 | 39 | 186 | 0.0 | 3.0 | 0.00 | 0.06 | 0.00 | 96 | 1000.0 |
| 20260904023054 | 38 | 186 | 0.0 | 3.0 | 0.00 | 0.06 | 0.00 | 95 | 1000.0 |
| 20260904022529 | 38 | 0 | 0.0 | 3.0 | 0.00 | 0.06 | 0.00 | 95 | 1000.2 |
| 20260904022031 | 39 | 0 | 0.0 | 2.0 | 0.00 | 0.06 | 0.00 | 95 | 1000.1 |
| 20260904021556 | 38 | 181 | 0.0 | 2.0 | 0.00 | 0.06 | 0.00 | 95 | 1000.2 |
| 20260904021031 | 39 | 0 | 0.0 | 0.0 | 0.00 | 0.06 | 0.00 | 95 | 1000.1 |
| 20260904020531 | 39 | 0 | 0.0 | 0.0 | 0.00 | 0.06 | 0.00 | 95 | 1000.2 |
| 20260904020045 | 39 | 0 | 0.0 | 0.0 | 0.00 | 0.06 | 0.00 | 95 | 1000.3 |
| 20260904015537 | 39 | 0 | 0.0 | 0.0 | 0.00 | 0.06 | 0.00 | 95 | 1000.4 |
| 20260904015033 | 40 | 0 | 0.0 | 0.0 | 0.00 | 0.06 | 0.00 | 95 | 1000.4 |
| 20260904014546 | 40 | 0 | 0.0 | 1.0 | 0.00 | 0.06 | 0.00 | 95 | 1000.4 |
| 20260904014031 | 40 | 0 | 0.0 | 1.0 | 0.00 | 0.06 | 0.00 | 95 | 1000.3 |
| 20260904013530 | 40 | 191 | 0.0 | 0.0 | 0.00 | 0.06 | 0.00 | 95 | 1000.4 |
| 20260904013113 | 41 | 0 | 0.0 | 0.0 | 0.00 | 0.06 | 0.00 | 95 | 1000.4 |
| 20260904012531 | 41 | 0 | 0.0 | 0.0 | 0.00 | 0.06 | 0.00 | 95 | 1000.4 |
| 20260904012031 | 41 | 0 | 0.0 | 0.0 | 0.00 | 0.06 | 0.00 | 95 | 1000.4 |
| 20260904011631 | 42 | 0 | 0.0 | 0.0 | 0.00 | 0.06 | 0.00 | 95 | 1000.4 |
| 20260904011032 | 42 | 0 | 0.0 | 0.0 | 0.00 | 0.06 | 0.00 | 95 | 1000.5 |
| 20260904010531 | 43 | 0 | 0.0 | 0.0 | 0.00 | 0.06 | 0.00 | 96 | 1000.4 |
| 20260904010049 | 43 | 0 | 0.0 | 0.0 | 0.00 | 0.06 | 0.00 | 95 | 1000.5 |
| 20260904005532 | 43 | 0 | 0.0 | 1.0 | 0.00 | 0.06 | 0.00 | 95 | 1000.5 |
| 20260904005031 | 43 | 0 | 0.0 | 2.0 | 0.00 | 0.06 | 0.00 | 95 | 1000.5 |
| 20260904004554 | 43 | 0 | 0.0 | 2.0 | 0.00 | 0.06 | 0.00 | 96 | 1000.6 |
| 20260904004033 | 43 | 191 | 0.0 | 2.0 | 0.00 | 0.06 | 0.00 | 96 | 1000.6 |
| 20260904003534 | 43 | 191 | 0.0 | 3.0 | 0.00 | 0.06 | 0.00 | 96 | 1000.6 |
| 20260904003053 | 43 | 0 | 0.0 | 3.0 | 0.00 | 0.06 | 0.00 | 96 | 1000.6 |
| 20260904002532 | 42 | 0 | 0.0 | 3.0 | 0.00 | 0.06 | 0.00 | 95 | 1000.7 |
| 20260904002031 | 43 | 0 | 0.0 | 0.0 | 0.00 | 0.06 | 0.00 | 96 | 1000.8 |
| 20260904001552 | 43 | 0 | 0.0 | 0.0 | 0.00 | 0.06 | 0.00 | 95 | 1000.8 |
| 20260904001032 | 42 | 0 | 0.0 | 0.0 | 0.00 | 0.06 | 0.00 | 95 | 1000.8 |
| 20260904000533 | 42 | 0 | 0.0 | 0.0 | 0.00 | 0.06 | 0.00 | 95 | 1000.8 |
| 20260904000058 | 42 | 0 | 0.0 | 0.0 | 0.00 | 0.06 | 0.00 | 95 | 1000.9 |
| 20260903235531 | 42 | 0 | 0.0 | 0.0 | 0.00 | 0.06 | 0.00 | 95 | 1001.0 |
| 20260903235031 | 43 | 0 | 0.0 | 0.0 | 0.00 | 0.06 | 0.00 | 95 | 1001.0 |
| 20260903234557 | 43 | 0 | 0.0 | 0.0 | 0.00 | 0.06 | 0.00 | 95 | 1001.0 |
| 20260903234030 | 43 | 0 | 0.0 | 1.0 | 0.00 | 0.06 | 0.00 | 95 | 1001.1 |
| 20260903233532 | 43 | 0 | 0.0 | 1.0 | 0.00 | 0.06 | 0.00 | 95 | 1001.2 |
| 20260903233052 | 43 | 0 | 0.0 | 3.0 | 0.00 | 0.06 | 0.00 | 95 | 1001.2 |
| 20260903232531 | 43 | 0 | 0.0 | 3.0 | 0.00 | 0.06 | 0.00 | 95 | 1001.2 |
| 20260903232031 | 44 | 0 | 0.0 | 3.0 | 0.00 | 0.06 | 0.00 | 95 | 1001.2 |
| 20260903231553 | 44 | 219 | 0.0 | 3.0 | 0.00 | 0.06 | 0.00 | 95 | 1001.3 |
| 20260903231031 | 44 | 174 | 0.0 | 2.0 | 0.00 | 0.06 | 0.00 | 95 | 1001.3 |
| 20260903230530 | 44 | 0 | 0.0 | 2.0 | 0.00 | 0.06 | 0.00 | 95 | 1001.3 |
| 20260903230105 | 45 | 210 | 0.0 | 2.0 | 0.00 | 0.06 | 0.00 | 95 | 1001.2 |
| 20260903225533 | 45 | 0 | 0.0 | 4.0 | 0.00 | 0.06 | 0.00 | 95 | 1001.2 |
| 20260903225031 | 45 | 0 | 0.0 | 4.0 | 0.00 | 0.06 | 0.00 | 95 | 1001.2 |
| 20260903224550 | 45 | 0 | 0.0 | 4.0 | 0.00 | 0.06 | 0.00 | 95 | 1001.2 |
| 20260903224031 | 45 | 174 | 0.0 | 5.0 | 0.00 | 0.06 | 0.00 | 95 | 1001.3 |
| 20260903223531 | 45 | 177 | 0.0 | 5.0 | 0.00 | 0.06 | 0.00 | 95 | 1001.3 |
| 20260903223059 | 45 | 0 | 0.0 | 3.0 | 0.00 | 0.06 | 0.00 | 95 | 1001.4 |
| 20260903222531 | 45 | 0 | 0.0 | 3.0 | 0.00 | 0.06 | 0.00 | 95 | 1001.4 |
| 20260903222055 | 45 | 0 | 0.0 | 3.0 | 0.00 | 0.06 | 0.00 | 95 | 1001.5 |
| 20260903221545 | 45 | 171 | 0.0 | 4.0 | 0.00 | 0.06 | 0.00 | 95 | 1001.4 |
| 20260903221032 | 45 | 0 | 1.0 | 4.0 | 0.00 | 0.06 | 0.00 | 95 | 1001.4 |
| 20260903220530 | 44 | 0 | 0.0 | 2.0 | 0.00 | 0.06 | 0.00 | 95 | 1001.4 |
| 20260903220053 | 44 | 0 | 0.0 | 1.0 | 0.00 | 0.06 | 0.00 | 95 | 1001.4 |
| 20260903215530 | 44 | 209 | 0.0 | 2.0 | 0.00 | 0.06 | 0.00 | 94 | 1001.4 |
| 20260903215033 | 44 | 0 | 0.0 | 5.0 | 0.00 | 0.06 | 0.00 | 94 | 1001.4 |
| 20260903214600 | 44 | 0 | 0.0 | 5.0 | 0.00 | 0.06 | 0.00 | 94 | 1001.2 |
| 20260903214031 | 44 | 0 | 0.0 | 0.0 | 0.00 | 0.06 | 0.00 | 94 | 1001.4 |
| 20260903213532 | 44 | 0 | 0.0 | 0.0 | 0.00 | 0.06 | 0.00 | 94 | 1001.3 |
| 20260903213044 | 44 | 0 | 0.0 | 0.0 | 0.00 | 0.06 | 0.00 | 94 | 1001.3 |
| 20260903212531 | 44 | 0 | 0.0 | 0.0 | 0.00 | 0.06 | 0.00 | 94 | 1001.3 |
| 20260903212032 | 44 | 0 | 0.0 | 0.0 | 0.00 | 0.06 | 0.00 | 93 | 1001.2 |
| 20260903211551 | 45 | 0 | 0.0 | 0.0 | 0.00 | 0.06 | 0.00 | 93 | 1001.4 |
| 20260903211030 | 45 | 0 | 0.0 | 0.0 | 0.00 | 0.06 | 0.00 | 93 | 1001.4 |
| 20260903210530 | 46 | 0 | 0.0 | 0.0 | 0.00 | 0.06 | 0.00 | 93 | 1001.5 |
| 20260903210116 | 46 | 0 | 0.0 | 0.0 | 0.00 | 0.06 | 0.00 | 93 | 1001.5 |
| 20260903205531 | 46 | 0 | 0.0 | 0.0 | 0.00 | 0.06 | 0.06 | 93 | 1001.4 |
| 20260903205032 | 47 | 0 | 0.0 | 0.0 | 0.01 | 0.06 | 0.06 | 93 | 1001.4 |
| 20260903204558 | 47 | 0 | 0.0 | 0.0 | 0.03 | 0.06 | 0.06 | 92 | 1001.5 |
| 20260903204031 | 47 | 0 | 0.0 | 1.0 | 0.03 | 0.06 | 0.06 | 92 | 1001.3 |
| 20260903203533 | 48 | 0 | 0.0 | 1.0 | 0.04 | 0.06 | 0.06 | 92 | 1001.4 |
| 20260903203044 | 48 | 0 | 0.0 | 1.0 | 0.06 | 0.06 | 0.06 | 92 | 1001.4 |
| 20260903202531 | 48 | 0 | 0.0 | 4.0 | 0.06 | 0.06 | 0.06 | 92 | 1001.4 |
| 20260903202030 | 49 | 0 | 0.0 | 4.0 | 0.06 | 0.06 | 0.06 | 91 | 1001.5 |
| 20260903201553 | 49 | 139 | 2.0 | 5.0 | 0.06 | 0.06 | 0.06 | 90 | 1001.5 |
| 20260903201030 | 49 | 130 | 2.0 | 5.0 | 0.06 | 0.06 | 0.06 | 90 | 1001.6 |
| 20260903200530 | 50 | 175 | 0.0 | 4.0 | 0.06 | 0.06 | 0.06 | 89 | 1001.7 |
| 20260903200105 | 50 | 0 | 1.0 | 4.0 | 0.05 | 0.05 | 0.05 | 89 | 1001.9 |
| 20260903195530 | 50 | 181 | 0.0 | 4.0 | 0.05 | 0.05 | 0.05 | 89 | 1001.9 |
| 20260903195029 | 51 | 231 | 1.0 | 5.0 | 0.03 | 0.03 | 0.03 | 89 | 1002.0 |
| 20260903194548 | 51 | 203 | 1.0 | 8.0 | 0.03 | 0.03 | 0.03 | 90 | 1002.1 |
| 20260903194029 | 51 | 232 | 3.0 | 8.0 | 0.02 | 0.02 | 0.02 | 91 | 1002.2 |
| 20260903193533 | 51 | 226 | 3.0 | 5.0 | 0.00 | 0.00 | 0.00 | 92 | 1002.2 |
| 20260903193048 | 50 | 224 | 2.0 | 4.0 | 0.00 | 0.00 | 0.00 | 93 | 1002.1 |
| 20260903192530 | 50 | 217 | 1.0 | 6.0 | 0.00 | 0.00 | 0.00 | 93 | 1001.9 |
| 20260903192030 | 49 | 241 | 2.0 | 6.0 | 0.00 | 0.00 | 0.00 | 94 | 1002.0 |
| 20260903191542 | 48 | 241 | 2.0 | 3.0 | 0.00 | 0.00 | 0.00 | 93 | 1001.9 |
| 20260903191033 | 48 | 0 | 0.0 | 0.0 | 0.00 | 0.00 | 0.00 | 93 | 1002.0 |
| 20260903190531 | 48 | 0 | 0.0 | 0.0 | 0.00 | 0.00 | 0.00 | 92 | 1001.8 |
| 20260903190053 | 48 | 0 | 0.0 | 0.0 | 0.00 | 0.00 | 0.00 | 92 | 1001.8 |
| 20260903185533 | 48 | 0 | 0.0 | 1.0 | 0.00 | 0.00 | 0.00 | 92 | 1001.8 |
| 20260903185033 | 48 | 0 | 0.0 | 2.0 | 0.00 | 0.00 | 0.00 | 91 | 1001.9 |
| 20260903184551 | 49 | 0 | 0.0 | 2.0 | 0.00 | 0.00 | 0.00 | 91 | 1002.0 |
| 20260903184035 | 50 | 0 | 0.0 | 2.0 | 0.00 | 0.00 | 0.00 | 91 | 1002.1 |
| 20260903183530 | 50 | 43 | 1.0 | 2.0 | 0.00 | 0.00 | 0.00 | 90 | 1001.9 |
| 20260903183051 | 50 | 43 | 0.0 | 3.0 | 0.00 | 0.00 | 0.00 | 90 | 1001.8 |
| 20260903182533 | 50 | 0 | 0.0 | 4.0 | 0.00 | 0.00 | 0.00 | 88 | 1001.9 |
| 20260903182030 | 51 | 191 | 1.0 | 6.0 | 0.00 | 0.00 | 0.00 | 88 | 1001.8 |
| 20260903181543 | 51 | 166 | 1.0 | 6.0 | 0.00 | 0.00 | 0.00 | 88 | 1001.9 |
| 20260903181029 | 51 | 179 | 2.0 | 5.0 | 0.00 | 0.00 | 0.00 | 87 | 1001.8 |
| 20260903180541 | 51 | 191 | 1.0 | 5.0 | 0.00 | 0.00 | 0.00 | 87 | 1001.9 |
| 20260903180052 | 51 | 0 | 1.0 | 4.0 | 0.00 | 0.00 | 0.00 | 87 | 1001.9 |
| 20260903175626 | 51 | 222 | 0.0 | 4.0 | 0.00 | 0.00 | 0.00 | 87 | 1001.9 |
| 20260903175030 | 51 | 211 | 1.0 | 4.0 | 0.00 | 0.00 | 0.00 | 87 | 1001.9 |
| 20260903174547 | 51 | 174 | 1.0 | 4.0 | 0.00 | 0.00 | 0.00 | 87 | 1002.1 |
| 20260903174055 | 51 | 0 | 0.0 | 3.0 | 0.00 | 0.00 | 0.00 | 87 | 1002.0 |
| 20260903173559 | 51 | 210 | 0.0 | 3.0 | 0.00 | 0.00 | 0.00 | 86 | 1002.1 |
| 20260903173045 | 51 | 228 | 0.0 | 2.0 | 0.00 | 0.00 | 0.00 | 86 | 1002.1 |
| 20260903172530 | 52 | 0 | 0.0 | 3.0 | 0.00 | 0.00 | 0.00 | 85 | 1002.1 |
| 20260903172030 | 52 | 228 | 0.0 | 3.0 | 0.00 | 0.00 | 0.00 | 85 | 1002.1 |
| 20260903171904 | 52 | 189 | 1.0 | 4.0 | 0.00 | 0.00 | 0.00 | 83 | 1002.0 |
| 20260903165533 | 54 | 249 | 2.0 | 5.0 | 0.00 | 0.00 | 0.00 | 80 | 1002.0 |
| 20260903165313 | 54 | 238 | 2.0 | 6.0 | 0.00 | 0.00 | 0.00 | 79 | 1001.9 |
| 20260903164548 | 55 | 248 | 3.0 | 6.0 | 0.00 | 0.00 | 0.00 | 79 | 1001.8 |
| 20260903164041 | 55 | 236 | 3.0 | 8.0 | 0.00 | 0.00 | 0.00 | 78 | 1001.9 |
| 20260903163530 | 55 | 267 | 3.0 | 9.0 | 0.00 | 0.00 | 0.00 | 77 | 1001.8 |
| 20260903163055 | 56 | 234 | 5.0 | 12.0 | 0.00 | 0.00 | 0.00 | 76 | 1002.0 |
| 20260903162531 | 56 | 247 | 3.0 | 12.0 | 0.00 | 0.00 | 0.00 | 75 | 1001.9 |
| 20260903162032 | 57 | 255 | 4.0 | 12.0 | 0.00 | 0.00 | 0.00 | 74 | 1001.8 |
| 20260903161555 | 57 | 284 | 5.0 | 14.0 | 0.00 | 0.00 | 0.00 | 73 | 1001.9 |
| 20260903161033 | 58 | 263 | 5.0 | 16.0 | 0.00 | 0.00 | 0.00 | 72 | 1001.9 |
| 20260903160530 | 59 | 232 | 8.0 | 16.0 | 0.00 | 0.00 | 0.00 | 71 | 1001.9 |
| 20260903160059 | 59 | 224 | 5.0 | 10.0 | 0.00 | 0.00 | 0.00 | 71 | 1001.8 |
| 20260903155536 | 60 | 198 | 5.0 | 10.0 | 0.00 | 0.00 | 0.00 | 72 | 1001.8 |
| 20260903155038 | 60 | 211 | 5.0 | 10.0 | 0.00 | 0.00 | 0.00 | 71 | 1001.9 |
| 20260903154554 | 60 | 255 | 4.0 | 11.0 | 0.00 | 0.00 | 0.00 | 71 | 1001.8 |
| 20260903154033 | 60 | 218 | 3.0 | 11.0 | 0.00 | 0.00 | 0.00 | 71 | 1001.9 |
| 20260903153529 | 59 | 224 | 6.0 | 13.0 | 0.00 | 0.00 | 0.00 | 70 | 1001.9 |
| 20260903153054 | 60 | 259 | 5.0 | 13.0 | 0.00 | 0.00 | 0.00 | 70 | 1001.9 |
| 20260903152530 | 60 | 230 | 5.0 | 11.0 | 0.00 | 0.00 | 0.00 | 69 | 1001.9 |
| 20260903152030 | 60 | 238 | 6.0 | 15.0 | 0.00 | 0.00 | 0.00 | 69 | 1001.9 |
| 20260903151604 | 60 | 243 | 5.0 | 15.0 | 0.00 | 0.00 | 0.00 | 67 | 1001.8 |
| 20260903151151 | 61 | 278 | 7.0 | 15.0 | 0.00 | 0.00 | 0.00 | 64 | 1001.9 |
| 20260903150530 | 61 | 228 | 7.0 | 15.0 | 0.00 | 0.00 | 0.00 | 68 | 1001.8 |
| 20260903150050 | 61 | 245 | 6.0 | 15.0 | 0.00 | 0.00 | 0.00 | 69 | 1001.8 |
| 20260903145532 | 60 | 247 | 3.0 | 12.0 | 0.00 | 0.00 | 0.00 | 74 | 1001.8 |
| 20260903145031 | 60 | 259 | 5.0 | 12.0 | 0.00 | 0.00 | 0.00 | 72 | 1001.7 |
| 20260903144544 | 61 | 275 | 4.0 | 12.0 | 0.00 | 0.00 | 0.00 | 72 | 1001.7 |
| 20260903144030 | 60 | 261 | 4.0 | 12.0 | 0.00 | 0.00 | 0.00 | 72 | 1001.8 |
| 20260903143530 | 60 | 260 | 5.0 | 13.0 | 0.00 | 0.00 | 0.00 | 73 | 1001.8 |
| 20260903143050 | 60 | 229 | 5.0 | 13.0 | 0.00 | 0.00 | 0.00 | 73 | 1001.9 |
| 20260903142530 | 61 | 251 | 5.0 | 11.0 | 0.00 | 0.00 | 0.00 | 70 | 1001.9 |
| 20260903142030 | 61 | 243 | 4.0 | 11.0 | 0.00 | 0.00 | 0.00 | 69 | 1001.8 |
| 20260903141550 | 60 | 276 | 4.0 | 12.0 | 0.00 | 0.00 | 0.00 | 68 | 1001.8 |
| 20260903141130 | 60 | 200 | 5.0 | 14.0 | 0.00 | 0.00 | 0.00 | 67 | 1001.7 |
| 20260903140534 | 61 | 224 | 8.0 | 16.0 | 0.00 | 0.00 | 0.00 | 65 | 1001.8 |
| 20260903140045 | 62 | 278 | 4.0 | 16.0 | 0.00 | 0.00 | 0.00 | 67 | 1001.8 |
| 20260903135532 | 62 | 274 | 6.0 | 16.0 | 0.00 | 0.00 | 0.00 | 63 | 1001.9 |
| 20260903135033 | 62 | 241 | 6.0 | 16.0 | 0.00 | 0.00 | 0.00 | 64 | 1001.7 |
| 20260903134553 | 62 | 216 | 4.0 | 16.0 | 0.00 | 0.00 | 0.00 | 63 | 1001.7 |
| 20260903134029 | 63 | 282 | 7.0 | 14.0 | 0.00 | 0.00 | 0.00 | 62 | 1001.7 |
| 20260903133534 | 63 | 219 | 5.0 | 15.0 | 0.00 | 0.00 | 0.00 | 60 | 1001.8 |
| 20260903133054 | 63 | 255 | 7.0 | 15.0 | 0.00 | 0.00 | 0.00 | 59 | 1001.7 |
| 20260903132529 | 64 | 263 | 5.0 | 15.0 | 0.00 | 0.00 | 0.00 | 57 | 1001.7 |
| 20260903132030 | 64 | 228 | 8.0 | 15.0 | 0.00 | 0.00 | 0.00 | 58 | 1001.7 |
| 20260903131556 | 64 | 240 | 6.0 | 14.0 | 0.00 | 0.00 | 0.00 | 57 | 1001.7 |
| 20260903131032 | 64 | 250 | 5.0 | 13.0 | 0.00 | 0.00 | 0.00 | 57 | 1001.8 |
| 20260903130536 | 64 | 166 | 6.0 | 16.0 | 0.00 | 0.00 | 0.00 | 59 | 1001.7 |
| 20260903130048 | 64 | 217 | 9.0 | 16.0 | 0.00 | 0.00 | 0.00 | 60 | 1001.7 |